TimeEDT,TemperatureF,Dew PointF,Humidity,Sea Level PressureIn,VisibilityMPH,Wind Direction,Wind SpeedMPH,Gust SpeedMPH,PrecipitationIn,Events,Conditions,WindDirDegrees,DateUTC
12:04 AM,55.4,53.6,94,29.69,0.2,Calm,Calm,-,N/A,Fog,Fog,0,2013-05-22 04:04:00
12:32 AM,55.4,53.6,94,29.69,0.5,Calm,Calm,-,N/A,Fog,Fog,0,2013-05-22 04:32:00
12:46 AM,55.4,55.4,100,29.69,0.2,Calm,Calm,-,N/A,Fog,Fog,0,2013-05-22 04:46:00
12:53 AM,55.0,55.0,100,29.68,0.2,Calm,Calm,-,N/A,Fog,Fog,0,2013-05-22 04:53:00
1:07 AM,55.4,55.4,100,29.68,0.5,Calm,Calm,-,N/A,Fog,Fog,0,2013-05-22 05:07:00
1:28 AM,55.4,55.4,100,29.69,0.2,Calm,Calm,-,N/A,Fog,Fog,0,2013-05-22 05:28:00
1:53 AM,55.0,55.0,100,29.68,0.2,Calm,Calm,-,0.01,Fog,Fog,0,2013-05-22 05:53:00
2:00 AM,55.4,55.4,100,29.69,1.0,Calm,Calm,-,N/A,,Overcast,0,2013-05-22 06:00:00
2:05 AM,55.4,53.6,94,29.69,3.0,Calm,Calm,-,N/A,,Mostly Cloudy,0,2013-05-22 06:05:00
2:17 AM,55.4,53.6,94,29.68,6.0,Calm,Calm,-,N/A,,Scattered Clouds,0,2013-05-22 06:17:00
2:53 AM,55.9,55.0,97,29.68,8.0,Calm,Calm,-,N/A,,Partly Cloudy,0,2013-05-22 06:53:00
3:53 AM,55.0,54.0,96,29.68,5.0,East,3.5,-,N/A,,Partly Cloudy,100,2013-05-22 07:53:00
4:53 AM,55.0,54.0,96,29.66,10.0,Calm,Calm,-,N/A,,Clear,0,2013-05-22 08:53:00
5:53 AM,54.0,53.1,97,29.66,10.0,Calm,Calm,-,N/A,,Clear,0,2013-05-22 09:53:00
6:50 AM,53.6,51.8,94,29.68,1.0,Calm,Calm,-,N/A,,Overcast,0,2013-05-22 10:50:00
6:53 AM,53.1,52.0,96,29.68,1.0,East,3.5,-,N/A,,Overcast,100,2013-05-22 10:53:00
7:31 AM,53.6,51.8,94,29.69,0.8,Calm,Calm,-,N/A,,Overcast,0,2013-05-22 11:31:00
7:53 AM,53.1,52.0,96,29.69,0.8,East,3.5,-,0.00,Rain,Light Rain,80,2013-05-22 11:53:00
8:48 AM,51.8,51.8,100,29.69,0.1,Calm,Calm,-,0.00,Fog,Fog,0,2013-05-22 12:48:00
8:53 AM,52.0,52.0,100,29.69,0.2,SE,5.8,-,0.00,Fog,Fog,140,2013-05-22 12:53:00
9:45 AM,55.4,53.6,94,29.68,0.8,NNW,3.5,-,N/A,,Overcast,340,2013-05-22 13:45:00
9:53 AM,55.0,54.0,96,29.69,0.8,NNE,3.5,-,N/A,,Overcast,20,2013-05-22 13:53:00
10:02 AM,55.4,53.6,94,29.69,2.0,Calm,Calm,-,N/A,,Overcast,0,2013-05-22 14:02:00
10:53 AM,57.9,55.0,90,29.69,2.0,NE,3.5,-,N/A,,Overcast,40,2013-05-22 14:53:00
11:09 AM,59.0,55.4,88,29.68,4.0,Calm,Calm,-,N/A,,Overcast,0,2013-05-22 15:09:00
11:53 AM,60.1,55.9,86,29.68,7.0,NNE,5.8,-,N/A,,Overcast,30,2013-05-22 15:53:00
12:53 PM,55.9,54.0,93,29.69,2.0,NNE,6.9,-,0.00,Rain,Light Rain,30,2013-05-22 16:53:00
1:30 PM,55.4,53.6,94,29.68,2.0,East,3.5,-,0.01,Rain,Light Rain,100,2013-05-22 17:30:00
1:53 PM,55.9,55.0,97,29.68,2.0,NE,3.5,-,0.02,Rain,Light Rain,40,2013-05-22 17:53:00
1:56 PM,55.4,55.4,100,29.67,2.0,NE,4.6,-,0.00,Rain,Light Rain,40,2013-05-22 17:56:00
2:53 PM,57.0,55.9,96,29.67,2.0,NW,5.8,-,0.06,Rain,Light Rain,320,2013-05-22 18:53:00
3:03 PM,55.4,55.4,100,29.67,1.0,NW,4.6,-,0.02,Rain,Rain,320,2013-05-22 19:03:00
3:53 PM,55.9,55.0,97,29.66,1.0,Calm,Calm,-,0.11,Rain,Light Rain,0,2013-05-22 19:53:00
4:16 PM,55.4,53.6,94,29.65,0.2,NNE,5.8,-,N/A,Fog-Rain,Light Rain,20,2013-05-22 20:16:00
4:50 PM,53.6,51.8,94,29.65,0.5,Calm,Calm,-,N/A,Rain,Light Rain,0,2013-05-22 20:50:00
4:53 PM,53.6,51.8,94,29.66,0.5,Calm,Calm,-,0.03,Rain,Light Rain,0,2013-05-22 20:53:00
5:17 PM,55.4,53.6,94,29.65,1.0,Calm,Calm,-,N/A,Rain,Light Rain,0,2013-05-22 21:17:00
5:53 PM,57.2,55.4,94,29.66,1.0,North,3.5,-,0.04,Rain,Light Rain,360,2013-05-22 21:53:00
6:53 PM,57.2,55.4,94,29.67,1.0,Calm,Calm,-,N/A,,Overcast,0,2013-05-22 22:53:00
7:53 PM,55.4,53.6,94,29.69,1.5,NW,4.6,-,0.02,Rain,Light Rain,310,2013-05-22 23:53:00
8:22 PM,55.4,53.6,94,29.68,0.8,North,3.5,-,N/A,Rain,Light Rain,360,2013-05-23 00:22:00
8:53 PM,55.4,55.4,100,29.68,0.8,North,4.6,-,0.07,Rain,Rain,10,2013-05-23 00:53:00
9:18 PM,53.6,53.6,100,29.68,1.0,Calm,Calm,-,N/A,Rain,Light Rain,0,2013-05-23 01:18:00
9:53 PM,53.6,53.6,100,29.70,1.0,Calm,Calm,-,0.02,Rain,Light Rain,0,2013-05-23 01:53:00
10:08 PM,53.6,53.6,100,29.70,10.0,Calm,Calm,-,N/A,,Overcast,0,2013-05-23 02:08:00
10:22 PM,53.6,51.8,94,29.70,10.0,Calm,Calm,-,N/A,,Overcast,0,2013-05-23 02:22:00
10:53 PM,54.0,52.0,93,29.72,10.0,NNW,4.6,-,N/A,,Overcast,340,2013-05-23 02:53:00
11:53 PM,54.0,52.0,93,29.73,4.0,NNW,3.5,-,N/A,,Overcast,340,2013-05-23 03:53:00